Time,TemperatureF,DewpointF,PressureIn,WindDirection,WindDirectionDegrees,WindSpeedMPH,WindSpeedGustMPH,Humidity,HourlyPrecipIn,Conditions,Clouds,dailyrainin,SoftwareType,DateUTC
2013-06-16 04:00:00,56.0,-99.9,-100.00,WNW,302,1.0,-999.0,-999,-99.99,,,-99.99,,2013-06-16 10:00:00,
2013-06-16 04:54:00,56.0,-99.9,-100.00,WNW,302,1.0,-999.0,-999,-99.99,,,-99.99,,2013-06-16 10:54:00,
2013-06-16 07:00:00,59.0,-99.9,-100.00,North,8,2.0,-999.0,-999,-99.99,,,-99.99,,2013-06-16 13:00:00,
2013-06-16 07:54:00,59.0,-99.9,-100.00,North,8,2.0,-999.0,-999,-99.99,,,-99.99,,2013-06-16 13:54:00,
2013-06-16 08:00:00,64.0,-99.9,-100.00,NW,318,1.0,-999.0,-999,-99.99,,,-99.99,,2013-06-16 14:00:00,
2013-06-16 08:53:00,64.0,-99.9,-100.00,NW,318,1.0,-999.0,-999,-99.99,,,-99.99,,2013-06-16 14:53:00,
2013-06-16 09:00:00,72.0,-99.9,-100.00,NE,54,2.0,-999.0,-999,-99.99,,,-99.99,,2013-06-16 15:00:00,
2013-06-16 09:53:00,72.0,-99.9,-100.00,NE,54,2.0,-999.0,-999,-99.99,,,-99.99,,2013-06-16 15:53:00,
2013-06-16 10:00:00,77.0,-99.9,-100.00,ESE,118,2.0,-999.0,-999,-99.99,,,-99.99,,2013-06-16 16:00:00,
2013-06-16 10:53:00,77.0,-99.9,-100.00,ESE,118,2.0,-999.0,-999,-99.99,,,-99.99,,2013-06-16 16:53:00,
2013-06-16 11:00:00,84.0,-99.9,-100.00,NNE,32,3.0,-999.0,-999,-99.99,,,-99.99,,2013-06-16 17:00:00,
2013-06-16 11:53:00,84.0,-99.9,-100.00,NNE,32,3.0,-999.0,-999,-99.99,,,-99.99,,2013-06-16 17:53:00,
2013-06-16 12:00:00,82.0,-99.9,-100.00,NNE,19,5.0,-999.0,-999,-99.99,,,-99.99,,2013-06-16 18:00:00,
2013-06-16 12:53:00,82.0,-99.9,-100.00,NNE,19,5.0,-999.0,-999,-99.99,,,-99.99,,2013-06-16 18:53:00,
2013-06-16 13:00:00,65.0,-99.9,-100.00,SW,222,7.0,-999.0,-999,-99.99,,,-99.99,,2013-06-16 19:00:00,
2013-06-16 14:00:00,71.0,-99.9,-100.00,SSW,201,5.0,-999.0,-999,-99.99,,,-99.99,,2013-06-16 20:00:00,
2013-06-16 14:53:00,71.0,-99.9,-100.00,SSW,201,5.0,-999.0,-999,-99.99,,,-99.99,,2013-06-16 20:53:00,
2013-06-16 15:00:00,78.0,-99.9,-100.00,South,174,3.0,-999.0,-999,-99.99,,,-99.99,,2013-06-16 21:00:00,
2013-06-16 15:53:00,78.0,-99.9,-100.00,South,174,3.0,-999.0,-999,-99.99,,,-99.99,,2013-06-16 21:53:00,
2013-06-16 16:00:00,77.0,-99.9,-100.00,North,6,9.0,-999.0,-999,-99.99,,,-99.99,,2013-06-16 22:00:00,
2013-06-16 16:52:00,77.0,-99.9,-100.00,North,6,9.0,-999.0,-999,-99.99,,,-99.99,,2013-06-16 22:52:00,
2013-06-16 17:00:00,79.0,-99.9,-100.00,ESE,113,4.0,-999.0,-999,-99.99,,,-99.99,,2013-06-16 23:00:00,
2013-06-16 17:52:00,79.0,-99.9,-100.00,ESE,113,4.0,-999.0,-999,-99.99,,,-99.99,,2013-06-16 23:52:00,
2013-06-16 18:00:00,79.0,-99.9,-100.00,SSW,209,5.0,-999.0,-999,-99.99,,,-99.99,,2013-06-17 00:00:00,
2013-06-16 18:53:00,79.0,-99.9,-100.00,SSW,209,5.0,-999.0,-999,-99.99,,,-99.99,,2013-06-17 00:53:00,
2013-06-16 19:00:00,75.0,-99.9,-100.00,WSW,247,10.0,-999.0,-999,-99.99,,,-99.99,,2013-06-17 01:00:00,
2013-06-16 19:53:00,75.0,-99.9,-100.00,WSW,247,10.0,-999.0,-999,-99.99,,,-99.99,,2013-06-17 01:53:00,
2013-06-16 20:00:00,70.0,-99.9,-100.00,SW,214,5.0,-999.0,-999,-99.99,,,-99.99,,2013-06-17 02:00:00,
2013-06-16 20:53:00,70.0,-99.9,-100.00,SW,214,5.0,-999.0,-999,-99.99,,,-99.99,,2013-06-17 02:53:00,
2013-06-16 21:00:00,68.0,-99.9,-100.00,NNE,17,3.0,-999.0,-999,-99.99,,,-99.99,,2013-06-17 03:00:00,
2013-06-16 21:54:00,68.0,-99.9,-100.00,NNE,17,3.0,-999.0,-999,-99.99,,,-99.99,,2013-06-17 03:54:00,
2013-06-16 22:00:00,64.0,-99.9,-100.00,SSW,196,3.0,-999.0,-999,-99.99,,,-99.99,,2013-06-17 04:00:00,
2013-06-16 22:53:00,64.0,-99.9,-100.00,SSW,196,3.0,-999.0,-999,-99.99,,,-99.99,,2013-06-17 04:53:00,
2013-06-16 23:00:00,59.0,-99.9,-100.00,SW,236,1.0,-999.0,-999,-99.99,,,-99.99,,2013-06-17 05:00:00,
2013-06-16 23:53:00,59.0,-99.9,-100.00,SW,236,1.0,-999.0,-999,-99.99,,,-99.99,,2013-06-17 05:53:00,